To NAV CANADA Home Page Login to a new session Search on AWWS site Feedback and Comments Disclaimer Vers la page française équivalente Tips FAQ What's new on the site To the Forecasts and Observations / NOTAM section To "File a Flight Plan" website Publications and other links Update of the User's profile FIC Telephone Numbers My Weather Data Folder Route Weather Data Regional Weather Data Local Weather Data To the Forecasts and Observations / NOTAM section
Request Generated 10/10/2015 at 12:27:25 UTC . Weather information available at that time is displayed.



METAR CYFO 101200Z VRB02KT 15SM BKN075 07/06 A2944 RMK AC7 SLP979=
METAR CYFO 101100Z VRB02KT 15SM BKN075 08/06 A2945 RMK AC7 SLP980=
LWIS CYFO 101000Z AUTO 05004KT 08/06 A2946=

CYFO - No TAF is issued for this station

Your time UTC time
Weather data provided by Environment Canada and NAV CANADA